This demonstration page uses our WeatherBlox Daily Observations layout. Learn more.

Left ArrowRight Arrow

53.62937, 11.41316

Hourly Observations for July 5, 2016

Temp ( °F °C ) Dew Point ( °F °C ) Humidity (%) Winds ( mph kmh ) Pressure ( in mb ) Visibility ( mi km ) Precip ( " mm )
6:20 am 06:20 Mostly Sunny 54 12 52 11 94 94 E 5 7 29.94 1014 7 11 N/A
6:50 am 06:50 Mostly Sunny 61 16 50 10 68 68 VRB 2 4 29.94 1014 7 11 N/A
7:20 am 07:20 Mostly Sunny 61 16 50 10 68 68 S 7 11 29.91 1013 7 11 N/A
7:50 am 07:50 Mostly Sunny 63 17 52 11 68 68 S 7 11 29.91 1013 7 11 N/A
8:20 am 08:20 Mostly Sunny 64 18 54 12 68 68 SSW 3 6 29.91 1013 7 11 N/A
8:50 am 08:50 Mostly Sunny 64 18 55 13 73 73 SSW 5 7 29.91 1013 7 11 N/A
9:20 am 09:20 Mostly Sunny 68 20 55 13 64 64 SW 7 11 29.88 1012 7 11 N/A
9:50 am 09:50 Mostly Sunny 70 21 57 14 64 64 SW 6 9 29.88 1012 7 11 N/A
10:20 am 10:20 Mostly Sunny 70 21 55 13 60 60 SSW 12 19 29.88 1012 30 48 N/A
10:50 am 10:50 Mostly Sunny 72 22 57 14 61 61 SSW 12 19 29.88 1012 30 48 N/A
11:20 am 11:20 Partly Cloudy 72 22 57 14 61 61 SW 9 15 29.85 1011 30 48 N/A
11:50 am 11:50 Mostly Cloudy 73 23 55 13 53 53 SW 12 19 29.85 1011 30 48 N/A
12:20 pm 12:20 Mostly Cloudy 72 22 57 14 61 61 SSW 13 20 29.85 1011 30 48 N/A
12:50 pm 12:50 Mostly Cloudy 72 22 55 13 57 57 SSW 12 19 29.85 1011 30 48 N/A
1:20 pm 13:20 Partly Cloudy 72 22 57 14 61 61 SW 15 24 29.83 1010 30 48 N/A
1:50 pm 13:50 Mostly Sunny 73 23 57 14 57 57 SW 13 20 29.83 1010 7 11 N/A
2:20 pm 14:20 Partly Cloudy 73 23 55 13 53 53 SW 16 26 29.83 1010 30 48 N/A
2:50 pm 14:50 Mostly Cloudy 73 23 54 12 50 50 SW 17 28 29.80 1009 30 48 N/A
3:00 pm 15:00 Mostly Cloudy with Strong Thunderstorms 68 20 57 14 69 69 WSW 16 26 29.80 1009 30 48 N/A
3:20 pm 15:20 Mostly Cloudy with Thunderstorms 66 19 61 16 83 83 WNW 9 15 29.80 1009 30 48 N/A
3:27 pm 15:27 Mostly Cloudy with Nearby Thunderstorms 70 21 63 17 78 78 WSW 10 17 29.80 1009 30 48 N/A
3:50 pm 15:50 Partly Cloudy 72 22 61 16 69 69 WSW 15 24 29.80 1009 30 48 N/A
4:20 pm 16:20 Mostly Cloudy 72 22 55 13 57 57 WSW 21 33 29.80 1009 30 48 N/A
4:50 pm 16:50 Mostly Cloudy 72 22 55 13 57 57 SW 23 37 29.77 1008 30 48 N/A
5:20 pm 17:20 Mostly Cloudy 70 21 55 13 60 60 SW 22 35 29.80 1009 30 48 N/A
5:50 pm 17:50 Mostly Cloudy 70 21 55 13 60 60 WSW 18 30 29.77 1008 30 48 N/A
6:20 pm 18:20 Mostly Cloudy with Nearby Thunderstorms 68 20 55 13 64 64 SW 17 28 29.77 1008 30 48 N/A
6:27 pm 18:27 Windy with Storms Likely 66 19 55 13 68 68 WSW 23 37 29.80 1009 30 48 N/A
6:50 pm 18:50 Partly Cloudy with Nearby Thunderstorms 61 16 57 14 88 88 W 16 26 29.80 1009 30 48 N/A

Powered by AerisWeather